Location: George Washington National Forest Helicopter Landing Site
(38.6463°N, 79.0851°W)
Time: 09:49:39
(UTC-04:00)

Tiros 1 - Pass Details

Date: 26 August 2019
Orbit: 630 x 664 km, 48.4° (Epoch: 20 September)

Event Time Altitude Azimuth Distance (km) Brightness Sun altitude
Exits shadow 05:17:17 - 304° (NW) 2,478 9.9 -15.9°
Reaches altitude 10° 05:18:27 10° 306° (NW) 2,023 9.4 -15.7°
Maximum altitude 05:23:06 70° 31° (NNE) 682 7.4 -14.9°
Drops below altitude 10° 05:27:47 10° 115° (ESE) 2,037 10.3 -14.1°
Sets 05:30:08 0° 117° (ESE) 2,950 11.1 -13.6°
